Погода в Калачинске

Погода в Калачинске : погода сейчас, прогноз погоды и архив. Всё, что Вы хотите узнать о погоде в Калачинске!

Хотите узнать прогноз погоды в Калачинске? Тогда Вам сюда: Погода в Калачинске

Поиск расширенной информации на нашем сайте:

Другие новости

Новости СМИ2

Главная страница сайта

Новости сайта

02.10.2013

Напоминаем, что на нашем новом сайте вы можете получить высокодетализированные прогнозы погоды по пунктам России, СНГ и мира (включающие важные для авиации метеовеличины, такие как направление и скорость ветра, видимость, явления погоды, количество и форма облачности, нижняя и верхняя граница облачности), а также ознакомиться с разнообразными материалами по авиационной метеорологии и подборкой полезных ссылок на эту тему.

Сайт Метеоцентр.Азия посвящён разработке технологий оптимизации авиаметеорологического обслуживания, включая проектирование и перспективное создание нескольких автоматизированных авиаметеорологических систем:
- система выпуска высокодетальных прогностических карт явлений погоды для нижнего воздушного пространства по России и ближнему зарубежью;
- система верификации прогнозов TAF (выпускаемых синоптиками официальных АМСГ РФ и ближнего зарубежья) и AUTOTAF (выпускаемых сайтом Метеоцентр.Азия) - выявление ошибок, онлайн-сопоставление с фактической погодой METAR, автоматическое внесение коррективов в прогнозы при резком отклонении фактической погоды от прогноза, подсчёт оправдываемости прогнозов по элементам и в целом;
- система обработки, анализа и отображения авиаметеорологической информации для применения провайдерами метеорологической информации.

Рекомендуем: Стилусы для планшетов. Здесь.

Погода в Калачинске - сегодня

Время (UTC), дата Ветер
(°,м/с) 
Видим.   Явления Облачность Т
(°С)
Тd
(°С)
f(%) Тe
(°С)
Pmin
(гПа)
dP
(гПа)
Po
(мм)
O2
(г/м3)
Тmin Tmax R s Состояние
почвы
21 26.03.17 210 (ЮЗ) 0500 м  переохл. туман [диам. изморози 2 мм]  ?/?  
-4.1 -4.1 100 -4  1014.2  -0.9  750  307           
00 27.03.17 240 (ЮЗ) 0500 м  переохл. туман [диам. изморози 3 мм]  ?/?  
-3.7 -3.7 100 -7  1013.9  -0.9  750  307           
03 27.03.17 210 (ЮЗ) 2800 м  дымка{туман} [диам. изморози 3 мм]  10/10 240 м 
[St]
-2.7 -2.7 100 -5  1014  0.2  750  306  -4.1      57  равномерный
сухой снег
100% 
06 27.03.17 220 (ЮЗ) 3000 м  дымка{ливн. осадки, туман} [диам. изморози 0 мм]  10/10 270 м кучево-дожд. 
[Cb cap]
-0.4 -1.5 92 -3  1014.3  0.4  750  303           
09 27.03.17 210 (ЮЗ) 20000 м    10/6 360 м средняя 
[Frnb|As op]
+1.4 -0.7 86 -1  1014.5  0.4  751  301           
12 27.03.17 210 (ЮЗ) 20000 м    10/10 600 м кучево-дожд. 
[Cb cap]
+1.7 -0.6 85 1015.3  0.8  751  301           
15 27.03.17 190 (Ю) 10 км    10/10 570 м кучево-дожд. 
[Cb cap]
+1.7 +1.2 96 1016.1  0.8  752  301    +1.9  0.0     
18 27.03.17 200 (Ю) 10 км    10/0 средняя 
[Ac und]
+1.9 +1.4 96 1016.2  0.2  752  301           
21 27.03.17 190 (Ю) 10 км    10/0 средняя 
[Ac und]
+2.3 +1 91 +1  1015.9  -0.3  752  300           
00 28.03.17 180 (Ю) 10 км    10/0 средняя 
[Ac und]
+2.3 +1.7 96 +2  1014.6  -1.3  751  300           
03 28.03.17 170 (Ю) 20000 м    10/0 средняя 
[As op]
+2 +0.9 92 1012.4  -2.3  749  299  +1.6      53  равномерный
мокрый или
старый снег
100% 
06 28.03.17 190 (Ю) 5{10}  3800 м  слаб. ливневой дождь со снегом  10/10 300 м кучево-дожд. 
[Cb cap]
+1.7 +1.3 97 -1  1011.6  -0.8  748  299  +1.6         
09 28.03.17 210 (ЮЗ) 5-10{11}  20000 м  {ливн. осадки}  10/10 420 м кучево-дожд. 
[Cb cap]
+3 +0.3 82 +1  1011.3  -0.2  748  298           
12 28.03.17 200 (Ю) 3{10}  20000 м  {ливн. осадки}  10/10 360 м кучево-дожд. 
[Cb cap]
+2.4 +0.6 88 +1  1011.4  0.1  748  299           
15 28.03.17 180 (Ю) 10 км    10/0 средняя 
[As op]
+1.8 +1.2 96 1009.9  -1.6  747  299    +3.2  0.8     
18 28.03.17 180 (Ю) 10 км    10/6 240 м средняя 
[Frnb|As op]
+1.4 +1.1 98 -1  1007.4  -2.5  745  299           
21 28.03.17 180 (Ю) 4000 м  слаб. ливневой дождь  10/10 570 м кучево-дожд. 
[Cb cap]
+2.6 +1.7 94 +1  1004.5  -2.8  743  296           
00 29.03.17 190 (Ю) 10 км  {ливн. осадки}  10/6 600 м кучево-дожд., средняя 
[Cb cap|Ac As]
+2.9 +1.6 91 +1  1001.9  -2.6  741  295           
03 29.03.17 210 (ЮЗ) 4{10}  2800 м  слаб. ливневой дождь со снегом  10/10 240 м кучево-дожд. 
[Cb cap]
+1.3 +1 98 -1  1002.7  0.7  742  297  +1.3    0.9  44  равномерный
мокрый или
старый снег
100% 
06 29.03.17 240 (ЮЗ) 6{10}  15000 м  в посл. час ливневой снег  10/10 180 м кучево-дожд. 
[Cb cap]
+1.4 +0.9 96 -2  1004.9  2.2  743  298  +0.5         
09 29.03.17 240 (ЮЗ) 7-10{13}  20000 м    10/10 800 м кучево-дожд. 
[Cb cap]
+2.2 -2.2 73 -1  1008  746  298           
12 29.03.17 210 (ЮЗ) 4{11}  20000 м    4/4 600 м 
[Cu hum]
+2.4 -1.4 76 1009.6  1.6  747  299           
15 29.03.17 180 (Ю) 10 км    3/0 верхняя 
[Ci fib]
+0.2 -2.2 84 -1  1010.7  748  301    +2.7     
18 29.03.17 150 (ЮВ) 10 км    3/0 верхняя 
[Ci fib]
-1.1 -2.8 88 -2  1010.3  -0.5  747  303           
21 29.03.17 140 (ЮВ) 10 км    9/9 870 м 
[Sc]
-1.3 -2.1 94 -2  1007.9  -2.4  746  302           
Время (UTC), дата Ветер
(°,м/с) 
Видим.   Явления Облачность Т
(°С)
Тd
(°С)
f(%) Тe
(°С)
Pmin
(гПа)
dP
(гПа)
Po
(мм)
O2
(г/м3)
Тmin Tmax R s Состояние
почвы

Для получения пояснительной информации подведите курсор к названию столбца.

ПОГОДА в Калачинске - архив

Всё, что Вы хотите узнать о погоде в Калачинске - удобно и подробно!

Выберите нужную дату (начиная с 1 января 2015* года) и нажмите кнопку "Найти".
Будут отображены архивные сводки погоды по пункту Калачинск, начиная с указанной даты.


Отображать данные в формате CSV (для использования в таблицах Excel)


Внимание! Наш архив погоды предназначен исключительно для личного некоммерческого использования в познавательных целях. Если Вам необходимы официальные справки о состоянии погоды (для производственных, юридических, коммерческих и т.п. целей), обращайтесь в органы Росгидромета.

*Примечание: данная дата относится к архиву по метеостанциям СССР (Россия, СНГ, Балтия).
Архив по метеостанциям Зарубежной Европы и Азии (кроме Китая) хранится 10 дней, по другим регионам земного шара (Китай, Африка, Америка, Австралия, Океания) - 1 день.

Калачинск - район местоположения метеостанции


Название, широта, долгота, высота метеостанции:
Калачинск 55°ш. 74.6°д. 110 м над ур. моря [Российская Федерация]

Дополнительная информация

В oтличие oт бoльшинства пoгoдных сайтoв мы публикуем пoдрoбную метеoинфoрмацию в детальнoм прoфессиoнальнoм фoрмате.

Характеристики температуры и влажнoсти вoздуха измеряются на высoте 2 м в тени вдали oт зданий и деревьев.
Скoрoсть ветра измеряется на высoте 10 м (на урoвне рoста челoвека скoрoсть ветра ниже в 1.5-2 раза). Если метеoстанция нахoдится в гoрoде или в лесу, тo скoрoсть ветра занижена на 2-4 м/с пo сравнению с oткрытым местoм. Скoрoсть ветра над акватoриями крупных рек и oзёр, а также на вершинах хoлмoв на 2-5 м/с выше, чем в oбычных услoвиях.
Атмoсфернoе давление в разных тoчках местнoсти мoжет значительнo oтличаться oт давления на метеoстанции, в зависимoсти oт услoвий рельефа (при пoдъёме на 10 м давление пoнижается примернo на 1 мм рт.ст.).